sat.trackr.live / text

‹ back to catalog

LEMUR-2-MANO

NORAD 57390 · 2023-100E

PAYLOAD ACTIVE UNKNOWN

§ Identity

Operator
Country
US
Launch date
2023-07-18
Launch site
RLLB
Launch vehicle
Mass (kg)
RCS (m²)

Purposes: earth_obs

External: N2YO · Heavens-Above · Gunter

§ Orbital elements

Epoch: 2026-05-25T04:48:29.990304Z

Period
88.42 min
Inclination
99.4501°
Eccentricity
0.0031480
Mean motion
16.28673702 rev/d
Perigee alt
175.4 km
Apogee alt
216.8 km
Semi-major
6,574.2 km
B*
1.1615e-3
RAAN
195.7338°
Arg perigee
223.1703°
Mean anomaly
136.7115°
Rev number
15,855

§ Raw data

LEMUR-2-MANO1 57390U 23100E   26145.20034711  .05189989  37333-5  11615-2 0  99952 57390  99.4501 195.7338 0031480 223.1703 136.7115 16.28673702158554

JSON: /api/v1/satellites/57390 · /tle

For live sub-satellite position, see the globe view (requires WebGL).

§ Visibility from observer

Set your observer location to see the next 7 days of passes ≥ 10°. The values pass through the URL so the page stays shareable.

No JS? Fill the form by hand. The geolocation button needs JavaScript.